This is the latest recevied weather packets stored in our database for station/object CQ0XPG-11. If no packets are shown the sender has not sent any weather packets the latest 10 day(s).
| Time | Temp. | Humidity | Pressure | Rain* | Wind** | Luminosity | Snow |
|---|---|---|---|---|---|---|---|
| 1777628459 | 13.89° C | 100% | 1010.3 hPa | 0 mm | - | - | - |
| 1777627839 | 13.89° C | 100% | 1010.3 hPa | 0 mm | - | - | - |
| 1777626379 | 12.78° C | 100% | 1010.1 hPa | 0 mm | - | - | - |
| 1777626014 | 12.22° C | 100% | 1009.9 hPa | 0 mm | - | - | - |
| 1777625739 | 12.22° C | 100% | 1009.9 hPa | 0 mm | - | - | - |
| 1777625131 | 11.67° C | 100% | 1009.8 hPa | 0 mm | - | - | - |
| 1777624807 | 11.67° C | 100% | 1009.8 hPa | 0 mm | - | - | - |
| 1777624545 | 11.67° C | 100% | 1009.6 hPa | 0 mm | - | - | - |
| 1777624195 | 11.11° C | 100% | 1009.3 hPa | 0 mm | - | - | - |
| 1777623930 | 11.11° C | 100% | 1009.2 hPa | 0 mm | - | - | - |
| 1777623595 | 11.11° C | 100% | 1008.9 hPa | 0 mm | - | - | - |
| 1777623345 | 10.56° C | 100% | 1008.3 hPa | 0 mm | - | - | - |
| 1777622988 | 10.56° C | 100% | 1007.9 hPa | 0 mm | - | - | - |
| 1777622700 | 10° C | 100% | 1007.5 hPa | 0 mm | - | - | - |
| 1777622376 | 10° C | 100% | 1007.4 hPa | 0 mm | - | - | - |
| 1777622085 | 9.44° C | 100% | 1007.3 hPa | 0 mm | - | - | - |
| 1777621769 | 8.89° C | 100% | 1007.3 hPa | 0 mm | - | - | - |
| 1777621497 | 8.89° C | 100% | 1007.3 hPa | 0 mm | - | - | - |
| 1777621186 | 8.33° C | 100% | 1007.5 hPa | 0 mm | - | - | - |
| 1777620876 | 8.33° C | 100% | 1007.7 hPa | 0 mm | - | - | - |
| 1777620569 | 7.78° C | 100% | 1007.6 hPa | 0 mm | - | - | - |
| 1777620269 | 7.78° C | 100% | 1007.6 hPa | 0 mm | - | - | - |
| 1777619958 | 7.78° C | 100% | 1007.5 hPa | 0 mm | - | - | - |
| 1777619671 | 7.78° C | 100% | 1007.4 hPa | 0 mm | - | - | - |
| 1777619062 | 6.67° C | 100% | 1007.3 hPa | 0 mm | - | - | - |
* Rain since midnight (hover to see other rain measurements)
** Current wind speed in m/s (hover to see current wind gust speed)